User: anonymous   Login
Location: Boitzum
(52.1496°N, 9.6943°E)
Time: 11:32:43
(UTC+00:00)
Language:

Cosmos 1844 - Orbit

View from above orbital plane
View from above orbital plane
View from above satellite
View from above satellite

Ground track
Ground track

The orbit is defined by the following mean orbital elements,

1 17973U          26066.13740324 +.00000000 +00000-0 -53473-4 0 00001
2 17973  70.8997  39.5581 0029853  21.5976 338.6397 14.14552672    03
Epoch (UTC): 07 March 2026 03:17:51
Eccentricity: 0.0029853
inclination: 70.8997°
perigee height: 822 km
apogee height: 865 km
right ascension of ascending node: 39.5581°
argument of perigee: 21.5976°
revolutions per day: 14.14552672
mean anomaly at epoch: 338.6397°

The dashed part of the orbit path shows where the satellite is in the earth's shadow,  

DLR